Volver al catálogo

STARLINK-6204

ActivoComunicacionesVLEO
NORAD 56488·PAYLOAD·🇺🇸 United States

Lanzado May 10, 2023 desde Vandenberg Space Force Base

Loading…

Próximos Pases (próximas 24 horas)

TLE

ActualizadoSource: CelesTrak SupGP

Época: Sep 14, 2026, 21:53 UTC

1 56488C 23064AS  26257.91229167 -.00049132  00000+0 -41187-2 0  2575
2 56488  70.0018 347.4598 0003375 272.0047  91.7849 14.98342968    12

Sigue STARLINK-6204 en tiempo real con AllMySat

Download on the App Store